DW2973 Weather Reports


time (UTC)temp
C
wind
direction
speed
KPH
gust
KPH
rain 1hr
cm
rain 24hr
cm
rain mn
cm
humidity
%
barometer
mb
20260906183041 16 222 0.0 0.0 0.00 0.00 0.05 79 1021.4
20260906181541 16 222 0.0 0.0 0.00 0.00 0.05 77 1021.4
20260906180059 16 222 0.0 0.0 0.00 0.00 0.05 76 1021.4
20260906174551 17 222 0.0 0.0 0.00 0.00 0.05 74 1021.4
20260906173039 17 222 0.0 0.0 0.00 0.00 0.05 73 1021.3
20260906171639 17 221 0.0 0.0 0.00 0.00 0.05 73 1021.3
20260906170038 17 221 0.0 0.0 0.00 0.00 0.05 72 1021.4
20260906164537 18 221 0.0 0.0 0.00 0.00 0.05 72 1021.3
20260906163037 18 218 0.0 0.0 0.00 0.00 0.05 71 1021.5
20260906161538 18 218 0.0 0.0 0.00 0.00 0.05 69 1021.6
20260906160037 18 233 0.0 0.0 0.00 0.00 0.05 68 1021.5
20260906154535 19 234 0.0 0.0 0.00 0.00 0.05 66 1021.5
20260906153044 20 235 0.0 0.0 0.00 0.00 0.05 66 1021.4
20260906151549 20 292 0.0 0.0 0.00 0.00 0.05 64 1021.4
20260906150036 20 292 0.0 0.0 0.00 0.00 0.05 62 1021.4
20260906144536 20 284 0.0 0.0 0.00 0.00 0.05 61 1021.4
20260906143041 20 346 0.0 0.0 0.00 0.00 0.05 62 1021.5
20260906141532 20 203 0.0 0.0 0.00 0.00 0.05 63 1021.4
20260906140034 20 248 0.0 0.0 0.00 0.00 0.05 61 1021.5
20260906134528 20 223 0.0 0.0 0.00 0.00 0.05 63 1021.3
20260906133028 20 223 1.6 0.0 0.00 0.00 0.05 64 1021.2
20260906131525 19 210 0.0 0.0 0.00 0.00 0.05 64 1021.3
20260906130024 19 212 1.6 0.0 0.00 0.00 0.05 65 1021.3
20260906124522 19 309 1.6 0.0 0.00 0.00 0.05 65 1021.4
20260906123037 19 216 1.6 0.0 0.00 0.00 0.05 66 1021.3
20260906121521 18 220 0.0 0.0 0.00 0.00 0.05 68 1021.4
20260906120021 19 227 0.0 0.0 0.00 0.00 0.05 67 1021.3
20260906114522 19 217 0.0 0.0 0.00 0.00 0.05 69 1021.2
20260906113018 18 344 0.0 0.0 0.00 0.00 0.03 69 1021.1
20260906111518 19 244 0.0 0.0 0.00 0.00 0.03 68 1021.1
20260906110016 19 240 0.0 0.0 0.00 0.00 0.03 70 1020.9
20260906104513 19 259 0.0 0.0 0.00 0.00 0.03 69 1020.8
20260906103010 18 313 0.0 0.0 0.00 0.00 0.03 71 1020.7
20260906101518 18 287 0.0 0.0 0.00 0.00 0.03 71 1020.5
20260906100006 18 321 0.0 0.0 0.00 0.00 0.03 71 1020.4
20260906094504 18 299 0.0 0.0 0.00 0.00 0.03 71 1020.1
20260906093102 17 259 0.0 0.0 0.00 0.00 0.03 75 1020.0
20260906091600 17 277 0.0 0.0 0.00 0.00 0.03 75 1020.0
20260906090115 17 213 0.0 0.0 0.00 0.00 0.03 76 1019.9
20260906084556 16 211 0.0 0.0 0.00 0.00 0.03 78 1019.6
20260906083051 16 187 0.0 0.0 0.00 0.00 0.03 80 1019.6
20260906081553 16 338 0.0 0.0 0.00 0.00 0.03 79 1019.5
20260906080051 15 246 0.0 0.0 0.00 0.00 0.03 81 1019.3
20260906074543 15 257 0.0 0.0 0.00 0.00 0.03 81 1019.1
20260906073056 15 303 0.0 0.0 0.00 0.00 0.03 81 1018.9
20260906071539 15 291 0.0 0.0 0.00 0.00 0.03 82 1018.7
20260906070041 15 271 0.0 0.0 0.00 0.00 0.03 82 1018.5
20260906064537 14 49 1.6 0.0 0.00 0.00 0.03 82 1018.5
20260906063045 14 309 0.0 0.0 0.00 0.00 0.03 83 1018.2
20260906061535 14 255 0.0 0.0 0.00 0.00 0.03 84 1018.1
20260906060033 13 321 0.0 0.0 0.00 0.00 0.03 83 1017.9
20260906054533 13 249 0.0 0.0 0.00 0.00 0.03 83 1017.8
20260906053029 13 337 0.0 0.0 0.00 0.00 0.03 83 1017.4
20260906051549 13 288 0.0 0.0 0.00 0.00 0.03 83 1017.4
20260906050031 13 338 0.0 0.0 0.00 0.00 0.03 83 1017.2
20260906044526 13 277 0.0 0.0 0.00 0.00 0.03 84 1017.1
20260906043025 13 355 1.6 0.0 0.00 0.00 0.03 84 1016.9
20260906041523 13 323 0.0 0.0 0.00 0.00 0.03 84 1016.6
20260906040031 13 248 0.0 0.0 0.00 0.00 0.03 84 1016.3
20260906034526 13 348 0.0 0.0 0.00 0.00 0.03 84 1016.2
20260906033017 13 318 0.0 0.0 0.00 0.00 0.03 83 1015.8
20260906031517 13 18 0.0 0.0 0.00 0.00 0.03 83 1015.9
20260906030014 13 327 0.0 0.0 0.00 0.00 0.03 83 1015.5
20260906024516 14 303 0.0 0.0 0.00 0.00 0.03 83 1015.3
20260906023011 14 275 1.6 0.0 0.00 0.00 0.03 83 1015.2
20260906021511 14 15 0.0 0.0 0.00 0.00 0.03 83 1015.1
20260906020017 14 328 1.6 0.0 0.00 0.00 0.03 83 1014.8
20260906014510 14 292 1.6 0.0 0.00 0.00 0.00 83 1014.9
20260906013007 14 317 1.6 0.0 0.00 0.00 0.00 83 1014.7
20260906011507 14 281 0.0 0.0 0.00 0.00 0.00 83 1014.6
20260906010006 14 355 1.6 0.0 0.00 0.00 0.00 83 1014.5
20260906004504 14 246 1.6 0.0 0.00 0.00 0.00 83 1014.3
20260906003003 14 238 1.6 0.0 0.00 0.00 0.00 83 1014.0
20260906001501 14 259 1.6 0.0 0.00 0.00 0.00 83 1013.8
20260906000108 14 253 0.0 0.0 0.00 0.00 0.00 82 1013.6
20260905234620 14 257 1.6 0.0 0.00 0.00 0.00 82 1013.5
20260905233055 15 246 0.0 0.0 0.00 0.00 0.00 81 1013.2
20260905231555 15 286 1.6 0.0 0.00 0.00 0.00 81 1013.1
20260905224552 15 307 1.6 0.0 0.00 0.00 0.00 80 1012.9
20260905223052 15 232 1.6 0.0 0.00 0.00 0.00 80 1012.6
20260905221551 15 28 1.6 0.0 0.00 0.00 0.00 80 1012.4
20260905220045 15 248 0.0 0.0 0.00 0.00 0.00 80 1012.2
20260905214543 15 340 1.6 0.0 0.00 0.00 0.08 80 1012.0
20260905213041 15 277 1.6 0.0 0.00 0.00 0.08 79 1011.6
20260905211541 15 253 1.6 0.0 0.00 0.00 0.08 79 1011.7
20260905210053 15 279 1.6 0.0 0.00 0.00 0.08 79 1011.3
20260905204539 15 226 1.6 0.0 0.00 0.00 0.08 79 1011.1
20260905203051 15 236 3.2 0.0 0.00 0.00 0.08 79 1011.0
20260905201537 15 246 1.6 0.0 0.00 0.00 0.08 80 1010.8
20260905200036 15 271 1.6 0.0 0.00 0.00 0.08 79 1010.7
20260905194532 15 283 3.2 0.0 0.00 0.00 0.08 79 1010.5
20260905193034 15 289 1.6 0.0 0.00 0.00 0.08 79 1010.4
20260905191535 15 279 3.2 0.0 0.00 0.00 0.08 79 1010.1
20260905190029 15 253 3.2 0.0 0.00 0.00 0.08 79 1010.1
20260905184528 15 264 1.6 0.0 0.00 0.00 0.08 79 1009.9